owner,sensor,date,latitude,longitude,vertical_datum,sea_water_practical_salinity,qcFlag 
TCOON,ioos:station:TCOON:146:1,2014-04-01T00:00:00Z,28.1324,-97.0345,0.0,30.9,1111122 
TCOON,ioos:station:TCOON:146:1,2014-04-01T01:30:00Z,28.1324,-97.0345,0.0,31.0,1111122 
TCOON,ioos:station:TCOON:146:1,2014-04-01T02:00:00Z,28.1324,-97.0345,0.0,31.2,1111122 
TCOON,ioos:station:TCOON:146:1,2014-04-01T03:00:00Z,28.1324,-97.0345,0.0,31.5,1111122 
TCOON,ioos:station:TCOON:146:1,2014-04-01T04:30:00Z,28.1324,-97.0345,0.0,31.9,1111122 
TCOON,ioos:station:TCOON:146:1,2014-04-01T05:00:00Z,28.1324,-97.0345,0.0,31.7,1111122 
TCOON,ioos:station:TCOON:146:1,2014-04-01T06:30:00Z,28.1324,-97.0345,0.0,31.6,1111122 
TCOON,ioos:station:TCOON:146:1,2014-04-01T07:00:00Z,28.1324,-97.0345,0.0,31.8,1111122 
TCOON,ioos:station:TCOON:146:1,2014-04-01T08:00:00Z,28.1324,-97.0345,0.0,31.8,1111122 
TCOON,ioos:station:TCOON:146:1,2014-04-01T09:00:00Z,28.1324,-97.0345,0.0,32.1,1111122 
TCOON,ioos:station:TCOON:146:1,2014-04-01T10:00:00Z,28.1324,-97.0345,0.0,32.3,1111122 
TCOON,ioos:station:TCOON:146:1,2014-04-01T11:00:00Z,28.1324,-97.0345,0.0,32.2,1111122 
TCOON,ioos:station:TCOON:146:1,2014-04-01T12:00:00Z,28.1324,-97.0345,0.0,32.0,1111122 
TCOON,ioos:station:TCOON:146:1,2014-04-01T13:00:00Z,28.1324,-97.0345,0.0,32.0,1111122 
TCOON,ioos:station:TCOON:146:1,2014-04-01T14:00:00Z,28.1324,-97.0345,0.0,31.2,1111122 
TCOON,ioos:station:TCOON:146:1,2014-04-01T15:00:00Z,28.1324,-97.0345,0.0,31.4,1111122 
TCOON,ioos:station:TCOON:146:1,2014-04-01T16:00:00Z,28.1324,-97.0345,0.0,31.4,1111122 
TCOON,ioos:station:TCOON:146:1,2014-04-02T16:00:00Z,28.1324,-97.0345,0.0,31.0,1111122 
TCOON,ioos:station:TCOON:146:1,2014-04-02T17:00:00Z,28.1324,-97.0345,0.0,30.9,1111122 
TCOON,ioos:station:TCOON:146:1,2014-04-02T19:30:00Z,28.1324,-97.0345,0.0,30.6,1111122 
TCOON,ioos:station:TCOON:146:1,2014-04-02T20:30:00Z,28.1324,-97.0345,0.0,30.2,1111122 
TCOON,ioos:station:TCOON:146:1,2014-04-02T21:00:00Z,28.1324,-97.0345,0.0,30.2,1111122 
TCOON,ioos:station:TCOON:146:1,2014-04-02T22:00:00Z,28.1324,-97.0345,0.0,30.6,1111122 
TCOON,ioos:station:TCOON:146:1,2014-04-02T23:00:00Z,28.1324,-97.0345,0.0,30.5,1111122 
TCOON,ioos:station:TCOON:146:1,2014-04-03T00:00:00Z,28.1324,-97.0345,0.0,30.5,1111122 
TCOON,ioos:station:TCOON:146:1,2014-04-03T01:00:00Z,28.1324,-97.0345,0.0,30.6,1111122 
TCOON,ioos:station:TCOON:146:1,2014-04-03T02:00:00Z,28.1324,-97.0345,0.0,30.6,1111122 
TCOON,ioos:station:TCOON:146:1,2014-04-03T03:00:00Z,28.1324,-97.0345,0.0,30.4,1111122 
TCOON,ioos:station:TCOON:146:1,2014-04-03T04:30:00Z,28.1324,-97.0345,0.0,30.9,1111122 
TCOON,ioos:station:TCOON:146:1,2014-04-03T05:00:00Z,28.1324,-97.0345,0.0,31.0,1111122 
TCOON,ioos:station:TCOON:146:1,2014-04-03T06:30:00Z,28.1324,-97.0345,0.0,30.8,1111122 
TCOON,ioos:station:TCOON:146:1,2014-04-03T08:00:00Z,28.1324,-97.0345,0.0,29.9,1111122 
TCOON,ioos:station:TCOON:146:1,2014-04-03T09:00:00Z,28.1324,-97.0345,0.0,29.8,1111122 
TCOON,ioos:station:TCOON:146:1,2014-04-03T10:00:00Z,28.1324,-97.0345,0.0,30.0,1111122 
TCOON,ioos:station:TCOON:146:1,2014-04-03T11:00:00Z,28.1324,-97.0345,0.0,29.7,1111122 
TCOON,ioos:station:TCOON:146:1,2014-04-03T12:00:00Z,28.1324,-97.0345,0.0,29.7,1111122 
TCOON,ioos:station:TCOON:146:1,2014-04-03T13:00:00Z,28.1324,-97.0345,0.0,30.2,1111122 
TCOON,ioos:station:TCOON:146:1,2014-04-03T14:00:00Z,28.1324,-97.0345,0.0,30.3,1111122 
TCOON,ioos:station:TCOON:146:1,2014-04-03T15:00:00Z,28.1324,-97.0345,0.0,30.3,1111122 
TCOON,ioos:station:TCOON:146:1,2014-04-03T16:00:00Z,28.1324,-97.0345,0.0,30.3,1111122 
TCOON,ioos:station:TCOON:146:1,2014-04-03T17:00:00Z,28.1324,-97.0345,0.0,30.4,1111122 
TCOON,ioos:station:TCOON:146:1,2014-04-03T18:00:00Z,28.1324,-97.0345,0.0,30.5,1111122 
TCOON,ioos:station:TCOON:146:1,2014-04-03T19:00:00Z,28.1324,-97.0345,0.0,30.5,1111122 
TCOON,ioos:station:TCOON:146:1,2014-04-03T20:00:00Z,28.1324,-97.0345,0.0,30.5,1111122 
TCOON,ioos:station:TCOON:146:1,2014-04-03T21:00:00Z,28.1324,-97.0345,0.0,30.6,1111122 
TCOON,ioos:station:TCOON:146:1,2014-04-03T22:30:00Z,28.1324,-97.0345,0.0,30.6,1111122 
TCOON,ioos:station:TCOON:146:1,2014-04-03T23:00:00Z,28.1324,-97.0345,0.0,30.6,1111122 
TCOON,ioos:station:TCOON:146:1,2014-04-04T00:00:00Z,28.1324,-97.0345,0.0,30.8,1111122 
TCOON,ioos:station:TCOON:146:1,2014-04-04T01:00:00Z,28.1324,-97.0345,0.0,30.7,1111122 
TCOON,ioos:station:TCOON:146:1,2014-04-04T02:00:00Z,28.1324,-97.0345,0.0,30.6,1111122 
TCOON,ioos:station:TCOON:146:1,2014-04-04T03:00:00Z,28.1324,-97.0345,0.0,30.6,1111122 
TCOON,ioos:station:TCOON:146:1,2014-04-04T04:00:00Z,28.1324,-97.0345,0.0,30.6,1111122 
TCOON,ioos:station:TCOON:146:1,2014-04-04T05:00:00Z,28.1324,-97.0345,0.0,30.3,1111122 
TCOON,ioos:station:TCOON:146:1,2014-04-04T06:30:00Z,28.1324,-97.0345,0.0,30.3,1111122 
TCOON,ioos:station:TCOON:146:1,2014-04-04T07:00:00Z,28.1324,-97.0345,0.0,30.2,1111122 
TCOON,ioos:station:TCOON:146:1,2014-04-04T08:00:00Z,28.1324,-97.0345,0.0,30.6,1111122 
TCOON,ioos:station:TCOON:146:1,2014-04-04T09:00:00Z,28.1324,-97.0345,0.0,30.2,1111122 
TCOON,ioos:station:TCOON:146:1,2014-04-04T10:00:00Z,28.1324,-97.0345,0.0,30.7,1111122 
TCOON,ioos:station:TCOON:146:1,2014-04-04T11:30:00Z,28.1324,-97.0345,0.0,31.3,1111122 
TCOON,ioos:station:TCOON:146:1,2014-04-04T12:00:00Z,28.1324,-97.0345,0.0,31.5,1111122 
TCOON,ioos:station:TCOON:146:1,2014-04-04T13:00:00Z,28.1324,-97.0345,0.0,30.4,1111122 
TCOON,ioos:station:TCOON:146:1,2014-04-04T14:00:00Z,28.1324,-97.0345,0.0,30.4,1111122 
TCOON,ioos:station:TCOON:146:1,2014-04-04T15:30:00Z,28.1324,-97.0345,0.0,30.2,1111122 
TCOON,ioos:station:TCOON:146:1,2014-04-04T16:00:00Z,28.1324,-97.0345,0.0,30.2,1111122 
TCOON,ioos:station:TCOON:146:1,2014-04-04T17:00:00Z,28.1324,-97.0345,0.0,30.2,1111122 
TCOON,ioos:station:TCOON:146:1,2014-04-04T18:00:00Z,28.1324,-97.0345,0.0,30.0,1111122 
TCOON,ioos:station:TCOON:146:1,2014-04-04T19:00:00Z,28.1324,-97.0345,0.0,30.0,1111122 
TCOON,ioos:station:TCOON:146:1,2014-04-04T20:00:00Z,28.1324,-97.0345,0.0,30.2,1111122 
TCOON,ioos:station:TCOON:146:1,2014-04-04T21:00:00Z,28.1324,-97.0345,0.0,30.2,1111122 
TCOON,ioos:station:TCOON:146:1,2014-04-04T22:00:00Z,28.1324,-97.0345,0.0,30.6,1111122 
TCOON,ioos:station:TCOON:146:1,2014-04-04T23:00:00Z,28.1324,-97.0345,0.0,30.6,1111122 
TCOON,ioos:station:TCOON:146:1,2014-04-05T00:00:00Z,28.1324,-97.0345,0.0,30.6,1111122 
TCOON,ioos:station:TCOON:146:1,2014-04-05T01:00:00Z,28.1324,-97.0345,0.0,30.6,1111122 
TCOON,ioos:station:TCOON:146:1,2014-04-05T02:30:00Z,28.1324,-97.0345,0.0,30.6,1111122 
TCOON,ioos:station:TCOON:146:1,2014-04-05T03:00:00Z,28.1324,-97.0345,0.0,30.5,1111122 
TCOON,ioos:station:TCOON:146:1,2014-04-05T04:00:00Z,28.1324,-97.0345,0.0,30.2,1111122 
TCOON,ioos:station:TCOON:146:1,2014-04-05T05:00:00Z,28.1324,-97.0345,0.0,29.9,1111122 
TCOON,ioos:station:TCOON:146:1,2014-04-05T06:00:00Z,28.1324,-97.0345,0.0,29.9,1111122 
TCOON,ioos:station:TCOON:146:1,2014-04-05T07:00:00Z,28.1324,-97.0345,0.0,30.9,1111122 
TCOON,ioos:station:TCOON:146:1,2014-04-05T08:00:00Z,28.1324,-97.0345,0.0,30.6,1111122 
TCOON,ioos:station:TCOON:146:1,2014-04-05T09:00:00Z,28.1324,-97.0345,0.0,30.4,1111122 
TCOON,ioos:station:TCOON:146:1,2014-04-05T10:00:00Z,28.1324,-97.0345,0.0,30.5,1111122 
TCOON,ioos:station:TCOON:146:1,2014-04-05T11:00:00Z,28.1324,-97.0345,0.0,30.5,1111122 
TCOON,ioos:station:TCOON:146:1,2014-04-05T12:00:00Z,28.1324,-97.0345,0.0,30.2,1111122 
TCOON,ioos:station:TCOON:146:1,2014-04-05T13:00:00Z,28.1324,-97.0345,0.0,30.8,1111122 
TCOON,ioos:station:TCOON:146:1,2014-04-05T14:00:00Z,28.1324,-97.0345,0.0,31.1,1111122 
TCOON,ioos:station:TCOON:146:1,2014-04-05T15:00:00Z,28.1324,-97.0345,0.0,30.8,1111122 
TCOON,ioos:station:TCOON:146:1,2014-04-05T16:00:00Z,28.1324,-97.0345,0.0,30.6,1111122 
TCOON,ioos:station:TCOON:146:1,2014-04-05T17:00:00Z,28.1324,-97.0345,0.0,30.5,1111122 
TCOON,ioos:station:TCOON:146:1,2014-04-05T18:00:00Z,28.1324,-97.0345,0.0,30.7,1111122 
TCOON,ioos:station:TCOON:146:1,2014-04-05T19:00:00Z,28.1324,-97.0345,0.0,30.8,1111122 
TCOON,ioos:station:TCOON:146:1,2014-04-05T20:00:00Z,28.1324,-97.0345,0.0,30.8,1111122 
TCOON,ioos:station:TCOON:146:1,2014-04-05T21:00:00Z,28.1324,-97.0345,0.0,30.9,1111122 
TCOON,ioos:station:TCOON:146:1,2014-04-05T22:00:00Z,28.1324,-97.0345,0.0,30.8,1111122 
TCOON,ioos:station:TCOON:146:1,2014-04-05T23:00:00Z,28.1324,-97.0345,0.0,30.5,1111122 
TCOON,ioos:station:TCOON:146:1,2014-04-06T00:30:00Z,28.1324,-97.0345,0.0,30.4,1111122 
TCOON,ioos:station:TCOON:146:1,2014-04-06T01:00:00Z,28.1324,-97.0345,0.0,30.5,1111122 
TCOON,ioos:station:TCOON:146:1,2014-04-06T02:00:00Z,28.1324,-97.0345,0.0,30.6,1111122 
TCOON,ioos:station:TCOON:146:1,2014-04-06T03:00:00Z,28.1324,-97.0345,0.0,30.5,1111122 
TCOON,ioos:station:TCOON:146:1,2014-04-06T04:00:00Z,28.1324,-97.0345,0.0,30.4,1111122 
TCOON,ioos:station:TCOON:146:1,2014-04-06T05:00:00Z,28.1324,-97.0345,0.0,30.2,1111122 
TCOON,ioos:station:TCOON:146:1,2014-04-06T06:30:00Z,28.1324,-97.0345,0.0,30.3,1111122 
TCOON,ioos:station:TCOON:146:1,2014-04-06T07:00:00Z,28.1324,-97.0345,0.0,30.3,1111122 
TCOON,ioos:station:TCOON:146:1,2014-04-06T08:00:00Z,28.1324,-97.0345,0.0,30.3,1111122 
TCOON,ioos:station:TCOON:146:1,2014-04-06T12:30:00Z,28.1324,-97.0345,0.0,30.6,1111122 
TCOON,ioos:station:TCOON:146:1,2014-04-06T13:30:00Z,28.1324,-97.0345,0.0,30.6,1111122 
TCOON,ioos:station:TCOON:146:1,2014-04-06T14:00:00Z,28.1324,-97.0345,0.0,30.6,1111122 
TCOON,ioos:station:TCOON:146:1,2014-04-06T15:00:00Z,28.1324,-97.0345,0.0,30.6,1111122 
TCOON,ioos:station:TCOON:146:1,2014-04-06T16:00:00Z,28.1324,-97.0345,0.0,30.7,1111122 
TCOON,ioos:station:TCOON:146:1,2014-04-06T17:00:00Z,28.1324,-97.0345,0.0,30.8,1111122 
TCOON,ioos:station:TCOON:146:1,2014-04-06T18:00:00Z,28.1324,-97.0345,0.0,30.7,1111122 
TCOON,ioos:station:TCOON:146:1,2014-04-06T19:00:00Z,28.1324,-97.0345,0.0,30.5,1111122 
TCOON,ioos:station:TCOON:146:1,2014-04-06T20:00:00Z,28.1324,-97.0345,0.0,30.6,1111122 
TCOON,ioos:station:TCOON:146:1,2014-04-06T21:00:00Z,28.1324,-97.0345,0.0,30.7,1111122 
TCOON,ioos:station:TCOON:146:1,2014-04-06T22:00:00Z,28.1324,-97.0345,0.0,30.7,1111122 
TCOON,ioos:station:TCOON:146:1,2014-04-06T23:00:00Z,28.1324,-97.0345,0.0,30.6,1111122 
TCOON,ioos:station:TCOON:146:1,2014-04-07T00:00:00Z,28.1324,-97.0345,0.0,30.6,1111122 
TCOON,ioos:station:TCOON:146:1,2014-04-07T01:30:00Z,28.1324,-97.0345,0.0,30.5,1111122 
TCOON,ioos:station:TCOON:146:1,2014-04-07T02:00:00Z,28.1324,-97.0345,0.0,30.6,1111122 
TCOON,ioos:station:TCOON:146:1,2014-04-07T03:00:00Z,28.1324,-97.0345,0.0,30.6,1111122 
TCOON,ioos:station:TCOON:146:1,2014-04-07T04:00:00Z,28.1324,-97.0345,0.0,30.6,1111122 
TCOON,ioos:station:TCOON:146:1,2014-04-07T05:00:00Z,28.1324,-97.0345,0.0,30.5,1111122 
TCOON,ioos:station:TCOON:146:1,2014-04-07T06:00:00Z,28.1324,-97.0345,0.0,30.6,1111122 
TCOON,ioos:station:TCOON:146:1,2014-04-07T07:00:00Z,28.1324,-97.0345,0.0,30.6,1111122 
TCOON,ioos:station:TCOON:146:1,2014-04-07T08:00:00Z,28.1324,-97.0345,0.0,30.7,1111122 
TCOON,ioos:station:TCOON:146:1,2014-04-07T09:00:00Z,28.1324,-97.0345,0.0,30.7,1111122 
TCOON,ioos:station:TCOON:146:1,2014-04-07T10:00:00Z,28.1324,-97.0345,0.0,31.0,1111122 
TCOON,ioos:station:TCOON:146:1,2014-04-07T11:00:00Z,28.1324,-97.0345,0.0,30.9,1111122 
TCOON,ioos:station:TCOON:146:1,2014-04-07T12:00:00Z,28.1324,-97.0345,0.0,31.1,1111122 
TCOON,ioos:station:TCOON:146:1,2014-04-07T13:00:00Z,28.1324,-97.0345,0.0,31.2,1111122 
TCOON,ioos:station:TCOON:146:1,2014-04-07T14:00:00Z,28.1324,-97.0345,0.0,31.4,1111122 
TCOON,ioos:station:TCOON:146:1,2014-04-07T15:00:00Z,28.1324,-97.0345,0.0,31.6,1111122 
TCOON,ioos:station:TCOON:146:1,2014-04-07T16:00:00Z,28.1324,-97.0345,0.0,31.5,1111122 
TCOON,ioos:station:TCOON:146:1,2014-04-07T17:00:00Z,28.1324,-97.0345,0.0,31.4,1111122 
TCOON,ioos:station:TCOON:146:1,2014-04-07T18:00:00Z,28.1324,-97.0345,0.0,31.4,1111122 
TCOON,ioos:station:TCOON:146:1,2014-04-07T19:00:00Z,28.1324,-97.0345,0.0,31.2,1111122 
TCOON,ioos:station:TCOON:146:1,2014-04-07T20:00:00Z,28.1324,-97.0345,0.0,31.1,1111122 
TCOON,ioos:station:TCOON:146:1,2014-04-07T21:00:00Z,28.1324,-97.0345,0.0,30.9,1111122 
TCOON,ioos:station:TCOON:146:1,2014-04-07T22:00:00Z,28.1324,-97.0345,0.0,30.7,1111122 
TCOON,ioos:station:TCOON:146:1,2014-04-07T23:00:00Z,28.1324,-97.0345,0.0,30.6,1111122 
TCOON,ioos:station:TCOON:146:1,2014-04-08T00:00:00Z,28.1324,-97.0345,0.0,30.6,1111122 
TCOON,ioos:station:TCOON:146:1,2014-04-08T01:00:00Z,28.1324,-97.0345,0.0,30.6,1111122 
TCOON,ioos:station:TCOON:146:1,2014-04-08T02:00:00Z,28.1324,-97.0345,0.0,30.6,1111122 
TCOON,ioos:station:TCOON:146:1,2014-04-08T04:30:00Z,28.1324,-97.0345,0.0,30.8,1111122 
TCOON,ioos:station:TCOON:146:1,2014-04-08T05:00:00Z,28.1324,-97.0345,0.0,30.9,1111122 
TCOON,ioos:station:TCOON:146:1,2014-04-08T07:00:00Z,28.1324,-97.0345,0.0,31.1,1111122 
TCOON,ioos:station:TCOON:146:1,2014-04-08T08:00:00Z,28.1324,-97.0345,0.0,31.1,1111122 
TCOON,ioos:station:TCOON:146:1,2014-04-08T09:00:00Z,28.1324,-97.0345,0.0,31.3,1111122 
TCOON,ioos:station:TCOON:146:1,2014-04-08T10:00:00Z,28.1324,-97.0345,0.0,31.4,1111122 
TCOON,ioos:station:TCOON:146:1,2014-04-08T11:00:00Z,28.1324,-97.0345,0.0,31.6,1111122 
TCOON,ioos:station:TCOON:146:1,2014-04-08T12:00:00Z,28.1324,-97.0345,0.0,31.7,1111122 
TCOON,ioos:station:TCOON:146:1,2014-04-08T13:00:00Z,28.1324,-97.0345,0.0,31.7,1111122 
TCOON,ioos:station:TCOON:146:1,2014-04-08T14:00:00Z,28.1324,-97.0345,0.0,31.8,1111122 
TCOON,ioos:station:TCOON:146:1,2014-04-08T15:00:00Z,28.1324,-97.0345,0.0,31.8,1111122 
TCOON,ioos:station:TCOON:146:1,2014-04-08T16:00:00Z,28.1324,-97.0345,0.0,31.8,1111122 
TCOON,ioos:station:TCOON:146:1,2014-04-08T17:30:00Z,28.1324,-97.0345,0.0,31.8,1111122 
TCOON,ioos:station:TCOON:146:1,2014-04-08T18:30:00Z,28.1324,-97.0345,0.0,31.7,1111122 
TCOON,ioos:station:TCOON:146:1,2014-04-08T19:30:00Z,28.1324,-97.0345,0.0,31.7,1111122 
TCOON,ioos:station:TCOON:146:1,2014-04-08T20:00:00Z,28.1324,-97.0345,0.0,31.7,1111122 
TCOON,ioos:station:TCOON:146:1,2014-04-08T21:00:00Z,28.1324,-97.0345,0.0,31.8,1111122 
TCOON,ioos:station:TCOON:146:1,2014-04-08T22:30:00Z,28.1324,-97.0345,0.0,31.8,1111122 
TCOON,ioos:station:TCOON:146:1,2014-04-08T23:00:00Z,28.1324,-97.0345,0.0,31.7,1111122 
TCOON,ioos:station:TCOON:146:1,2014-04-09T00:00:00Z,28.1324,-97.0345,0.0,31.7,1111122 
TCOON,ioos:station:TCOON:146:1,2014-04-09T01:00:00Z,28.1324,-97.0345,0.0,31.8,1111122 
TCOON,ioos:station:TCOON:146:1,2014-04-09T02:30:00Z,28.1324,-97.0345,0.0,31.8,1111122 
TCOON,ioos:station:TCOON:146:1,2014-04-09T04:00:00Z,28.1324,-97.0345,0.0,31.8,1111122 
TCOON,ioos:station:TCOON:146:1,2014-04-09T05:00:00Z,28.1324,-97.0345,0.0,31.8,1111122 
TCOON,ioos:station:TCOON:146:1,2014-04-09T06:30:00Z,28.1324,-97.0345,0.0,31.8,1111122 
TCOON,ioos:station:TCOON:146:1,2014-04-09T07:00:00Z,28.1324,-97.0345,0.0,31.8,1111122 
TCOON,ioos:station:TCOON:146:1,2014-04-09T08:00:00Z,28.1324,-97.0345,0.0,31.7,1111122 
TCOON,ioos:station:TCOON:146:1,2014-04-09T09:00:00Z,28.1324,-97.0345,0.0,31.7,1111122 
TCOON,ioos:station:TCOON:146:1,2014-04-09T10:00:00Z,28.1324,-97.0345,0.0,31.8,1111122 
TCOON,ioos:station:TCOON:146:1,2014-04-09T11:00:00Z,28.1324,-97.0345,0.0,31.9,1111122 
TCOON,ioos:station:TCOON:146:1,2014-04-09T12:30:00Z,28.1324,-97.0345,0.0,31.9,1111122 
TCOON,ioos:station:TCOON:146:1,2014-04-09T13:00:00Z,28.1324,-97.0345,0.0,31.9,1111122 
TCOON,ioos:station:TCOON:146:1,2014-04-09T14:00:00Z,28.1324,-97.0345,0.0,32.0,1111122 
TCOON,ioos:station:TCOON:146:1,2014-04-09T15:00:00Z,28.1324,-97.0345,0.0,32.0,1111122 
TCOON,ioos:station:TCOON:146:1,2014-04-09T16:00:00Z,28.1324,-97.0345,0.0,32.0,1111122 
TCOON,ioos:station:TCOON:146:1,2014-04-09T17:00:00Z,28.1324,-97.0345,0.0,32.2,1111122 
TCOON,ioos:station:TCOON:146:1,2014-04-09T18:00:00Z,28.1324,-97.0345,0.0,32.2,1111122 
TCOON,ioos:station:TCOON:146:1,2014-04-09T19:00:00Z,28.1324,-97.0345,0.0,32.2,1111122 
TCOON,ioos:station:TCOON:146:1,2014-04-09T20:00:00Z,28.1324,-97.0345,0.0,32.1,1111122 
TCOON,ioos:station:TCOON:146:1,2014-04-09T21:30:00Z,28.1324,-97.0345,0.0,32.3,1111122 
TCOON,ioos:station:TCOON:146:1,2014-04-09T22:00:00Z,28.1324,-97.0345,0.0,32.1,1111122 
TCOON,ioos:station:TCOON:146:1,2014-04-10T02:00:00Z,28.1324,-97.0345,0.0,31.9,1111122 
TCOON,ioos:station:TCOON:146:1,2014-04-10T03:30:00Z,28.1324,-97.0345,0.0,31.9,1111122 
TCOON,ioos:station:TCOON:146:1,2014-04-10T04:00:00Z,28.1324,-97.0345,0.0,31.9,1111122 
TCOON,ioos:station:TCOON:146:1,2014-04-10T05:00:00Z,28.1324,-97.0345,0.0,31.8,1111122 
TCOON,ioos:station:TCOON:146:1,2014-04-10T07:00:00Z,28.1324,-97.0345,0.0,31.8,1111122 
TCOON,ioos:station:TCOON:146:1,2014-04-10T08:00:00Z,28.1324,-97.0345,0.0,31.8,1111122 
TCOON,ioos:station:TCOON:146:1,2014-04-10T09:00:00Z,28.1324,-97.0345,0.0,31.7,1111122 
TCOON,ioos:station:TCOON:146:1,2014-04-10T10:00:00Z,28.1324,-97.0345,0.0,31.7,1111122 
TCOON,ioos:station:TCOON:146:1,2014-04-10T11:00:00Z,28.1324,-97.0345,0.0,31.7,1111122 
TCOON,ioos:station:TCOON:146:1,2014-04-10T12:00:00Z,28.1324,-97.0345,0.0,31.8,1111122 
TCOON,ioos:station:TCOON:146:1,2014-04-10T13:00:00Z,28.1324,-97.0345,0.0,31.8,1111122 
TCOON,ioos:station:TCOON:146:1,2014-04-10T14:00:00Z,28.1324,-97.0345,0.0,31.9,1111122 
TCOON,ioos:station:TCOON:146:1,2014-04-10T15:00:00Z,28.1324,-97.0345,0.0,31.9,1111122 
TCOON,ioos:station:TCOON:146:1,2014-04-10T16:00:00Z,28.1324,-97.0345,0.0,31.9,1111122 
TCOON,ioos:station:TCOON:146:1,2014-04-10T17:30:00Z,28.1324,-97.0345,0.0,31.8,1111122 
TCOON,ioos:station:TCOON:146:1,2014-04-10T18:30:00Z,28.1324,-97.0345,0.0,31.8,1111122 
TCOON,ioos:station:TCOON:146:1,2014-04-10T19:00:00Z,28.1324,-97.0345,0.0,31.6,1111122 
TCOON,ioos:station:TCOON:146:1,2014-04-10T20:00:00Z,28.1324,-97.0345,0.0,30.8,1111122 
TCOON,ioos:station:TCOON:146:1,2014-04-10T21:00:00Z,28.1324,-97.0345,0.0,30.2,1111122 
TCOON,ioos:station:TCOON:146:1,2014-04-10T22:00:00Z,28.1324,-97.0345,0.0,29.8,1111122 
TCOON,ioos:station:TCOON:146:1,2014-04-10T23:00:00Z,28.1324,-97.0345,0.0,30.3,1111122 
TCOON,ioos:station:TCOON:146:1,2014-04-11T00:00:00Z,28.1324,-97.0345,0.0,30.1,1111122 
TCOON,ioos:station:TCOON:146:1,2014-04-11T01:00:00Z,28.1324,-97.0345,0.0,30.0,1111122 
TCOON,ioos:station:TCOON:146:1,2014-04-11T02:00:00Z,28.1324,-97.0345,0.0,30.0,1111122 
TCOON,ioos:station:TCOON:146:1,2014-04-11T04:00:00Z,28.1324,-97.0345,0.0,30.2,1111122 
TCOON,ioos:station:TCOON:146:1,2014-04-11T05:00:00Z,28.1324,-97.0345,0.0,30.4,1111122 
TCOON,ioos:station:TCOON:146:1,2014-04-11T06:30:00Z,28.1324,-97.0345,0.0,30.3,1111122 
TCOON,ioos:station:TCOON:146:1,2014-04-11T08:00:00Z,28.1324,-97.0345,0.0,30.3,1111122 
TCOON,ioos:station:TCOON:146:1,2014-04-11T09:30:00Z,28.1324,-97.0345,0.0,30.2,1111122 
TCOON,ioos:station:TCOON:146:1,2014-04-11T10:00:00Z,28.1324,-97.0345,0.0,30.2,1111122 
TCOON,ioos:station:TCOON:146:1,2014-04-11T11:00:00Z,28.1324,-97.0345,0.0,30.3,1111122 
TCOON,ioos:station:TCOON:146:1,2014-04-11T12:00:00Z,28.1324,-97.0345,0.0,30.3,1111122 
TCOON,ioos:station:TCOON:146:1,2014-04-11T13:30:00Z,28.1324,-97.0345,0.0,30.2,1111122 
TCOON,ioos:station:TCOON:146:1,2014-04-11T14:00:00Z,28.1324,-97.0345,0.0,30.3,1111122 
TCOON,ioos:station:TCOON:146:1,2014-04-11T15:00:00Z,28.1324,-97.0345,0.0,31.6,1111122 
TCOON,ioos:station:TCOON:146:1,2014-04-11T16:00:00Z,28.1324,-97.0345,0.0,32.2,1111122 
TCOON,ioos:station:TCOON:146:1,2014-04-11T17:30:00Z,28.1324,-97.0345,0.0,32.1,1111122 
TCOON,ioos:station:TCOON:146:1,2014-04-11T18:00:00Z,28.1324,-97.0345,0.0,31.9,1111122 
TCOON,ioos:station:TCOON:146:1,2014-04-11T19:30:00Z,28.1324,-97.0345,0.0,31.9,1111122 
TCOON,ioos:station:TCOON:146:1,2014-04-11T20:00:00Z,28.1324,-97.0345,0.0,31.9,1111122 
TCOON,ioos:station:TCOON:146:1,2014-04-11T22:00:00Z,28.1324,-97.0345,0.0,30.9,1111122 
TCOON,ioos:station:TCOON:146:1,2014-04-11T23:00:00Z,28.1324,-97.0345,0.0,31.3,1111122 
TCOON,ioos:station:TCOON:146:1,2014-04-12T01:00:00Z,28.1324,-97.0345,0.0,31.2,1111122 
TCOON,ioos:station:TCOON:146:1,2014-04-12T02:30:00Z,28.1324,-97.0345,0.0,31.4,1111122 
TCOON,ioos:station:TCOON:146:1,2014-04-12T03:00:00Z,28.1324,-97.0345,0.0,31.3,1111122 
TCOON,ioos:station:TCOON:146:1,2014-04-12T04:00:00Z,28.1324,-97.0345,0.0,30.9,1111122 
TCOON,ioos:station:TCOON:146:1,2014-04-12T05:30:00Z,28.1324,-97.0345,0.0,32.1,1111122 
TCOON,ioos:station:TCOON:146:1,2014-04-12T06:00:00Z,28.1324,-97.0345,0.0,32.2,1111122 
TCOON,ioos:station:TCOON:146:1,2014-04-12T07:30:00Z,28.1324,-97.0345,0.0,32.3,1111122 
TCOON,ioos:station:TCOON:146:1,2014-04-12T08:30:00Z,28.1324,-97.0345,0.0,32.2,1111122 
TCOON,ioos:station:TCOON:146:1,2014-04-12T09:00:00Z,28.1324,-97.0345,0.0,32.2,1111122 
TCOON,ioos:station:TCOON:146:1,2014-04-12T10:00:00Z,28.1324,-97.0345,0.0,32.1,1111122 
TCOON,ioos:station:TCOON:146:1,2014-04-12T11:30:00Z,28.1324,-97.0345,0.0,32.1,1111122 
TCOON,ioos:station:TCOON:146:1,2014-04-12T14:00:00Z,28.1324,-97.0345,0.0,32.2,1111122 
TCOON,ioos:station:TCOON:146:1,2014-04-12T15:30:00Z,28.1324,-97.0345,0.0,32.2,1111122 
TCOON,ioos:station:TCOON:146:1,2014-04-12T16:00:00Z,28.1324,-97.0345,0.0,32.1,1111122 
TCOON,ioos:station:TCOON:146:1,2014-04-12T17:00:00Z,28.1324,-97.0345,0.0,32.1,1111122 
TCOON,ioos:station:TCOON:146:1,2014-04-12T18:00:00Z,28.1324,-97.0345,0.0,32.1,1111122 
TCOON,ioos:station:TCOON:146:1,2014-04-12T19:00:00Z,28.1324,-97.0345,0.0,32.1,1111122 
TCOON,ioos:station:TCOON:146:1,2014-04-12T20:00:00Z,28.1324,-97.0345,0.0,32.1,1111122 
TCOON,ioos:station:TCOON:146:1,2014-04-12T21:00:00Z,28.1324,-97.0345,0.0,32.1,1111122 
TCOON,ioos:station:TCOON:146:1,2014-04-12T22:00:00Z,28.1324,-97.0345,0.0,31.3,1111122 
TCOON,ioos:station:TCOON:146:1,2014-04-13T00:00:00Z,28.1324,-97.0345,0.0,31.3,1111122 
TCOON,ioos:station:TCOON:146:1,2014-04-13T02:00:00Z,28.1324,-97.0345,0.0,31.4,1111122 
TCOON,ioos:station:TCOON:146:1,2014-04-13T03:00:00Z,28.1324,-97.0345,0.0,31.8,1111122 
TCOON,ioos:station:TCOON:146:1,2014-04-13T04:00:00Z,28.1324,-97.0345,0.0,31.9,1111122 
TCOON,ioos:station:TCOON:146:1,2014-04-13T05:00:00Z,28.1324,-97.0345,0.0,31.9,1111122 
TCOON,ioos:station:TCOON:146:1,2014-04-13T07:00:00Z,28.1324,-97.0345,0.0,32.7,1111122 
TCOON,ioos:station:TCOON:146:1,2014-04-13T08:00:00Z,28.1324,-97.0345,0.0,32.8,1111122 
TCOON,ioos:station:TCOON:146:1,2014-04-13T09:00:00Z,28.1324,-97.0345,0.0,32.7,1111122 
TCOON,ioos:station:TCOON:146:1,2014-04-13T10:00:00Z,28.1324,-97.0345,0.0,32.7,1111122 
TCOON,ioos:station:TCOON:146:1,2014-04-13T11:00:00Z,28.1324,-97.0345,0.0,31.9,1111122 
TCOON,ioos:station:TCOON:146:1,2014-04-13T12:00:00Z,28.1324,-97.0345,0.0,31.5,1111122 
TCOON,ioos:station:TCOON:146:1,2014-04-13T13:00:00Z,28.1324,-97.0345,0.0,31.5,1111122 
TCOON,ioos:station:TCOON:146:1,2014-04-13T14:00:00Z,28.1324,-97.0345,0.0,31.7,1111122 
TCOON,ioos:station:TCOON:146:1,2014-04-13T15:00:00Z,28.1324,-97.0345,0.0,32.1,1111122 
TCOON,ioos:station:TCOON:146:1,2014-04-13T16:00:00Z,28.1324,-97.0345,0.0,32.3,1111122 
TCOON,ioos:station:TCOON:146:1,2014-04-13T17:30:00Z,28.1324,-97.0345,0.0,32.2,1111122 
TCOON,ioos:station:TCOON:146:1,2014-04-13T18:00:00Z,28.1324,-97.0345,0.0,32.2,1111122 
TCOON,ioos:station:TCOON:146:1,2014-04-13T19:00:00Z,28.1324,-97.0345,0.0,32.2,1111122 
TCOON,ioos:station:TCOON:146:1,2014-04-13T20:00:00Z,28.1324,-97.0345,0.0,32.2,1111122 
TCOON,ioos:station:TCOON:146:1,2014-04-13T21:30:00Z,28.1324,-97.0345,0.0,32.0,1111122 
TCOON,ioos:station:TCOON:146:1,2014-04-13T22:00:00Z,28.1324,-97.0345,0.0,32.0,1111122 
TCOON,ioos:station:TCOON:146:1,2014-04-13T23:00:00Z,28.1324,-97.0345,0.0,31.2,1111122 
TCOON,ioos:station:TCOON:146:1,2014-04-14T00:30:00Z,28.1324,-97.0345,0.0,30.5,1111122 
TCOON,ioos:station:TCOON:146:1,2014-04-14T01:00:00Z,28.1324,-97.0345,0.0,30.5,1111122 
TCOON,ioos:station:TCOON:146:1,2014-04-14T02:00:00Z,28.1324,-97.0345,0.0,30.6,1111122 
TCOON,ioos:station:TCOON:146:1,2014-04-14T03:00:00Z,28.1324,-97.0345,0.0,30.9,1111122 
TCOON,ioos:station:TCOON:146:1,2014-04-14T04:00:00Z,28.1324,-97.0345,0.0,31.6,1111122 
TCOON,ioos:station:TCOON:146:1,2014-04-14T05:00:00Z,28.1324,-97.0345,0.0,31.7,1111122 